Flag for U.S.A. Weather past 2 weeks in Dover, Delaware, U.S.A.

Now
69 °F

Passing clouds.


Feels Like: 69 °F
Forecast: 68 / 83 °F
Wind: No wind

Location: Dover Air Force Base

Current Time: Jul 5, 2015 at 2:04:01 AM

Latest Report: Jul 5, 2015 at 12:58 AM


Visibility: 10 mi

Pressure: 30.03 "Hg

Humidity: 80%

Dew point: 63 °F

Location of DoverLocation

Historic Weather in Dover — Graph

°F

Dover temperature yesterday

Maximum temperature yesterday: 78 °F (at 3:58 PM)
Minimum temperature yesterday: 69 °F (at 10:58 PM)
Average temperature yesterday: 74 °F

Past Weeks' High & Low Weather Summary

 TemperatureHumidityPressure
High94 °F (Jun 23, 3:58 PM)100% (Jun 20, 12:58 AM)30.10 "Hg (Jun 20, 12:58 AM)
Low61 °F (Jun 29, 5:58 AM)49% (Jun 22, 3:58 PM)29.62 "Hg (Jun 28, 2:59 AM)
Average74 °F82%29.90 "Hg
* Reported Jun 20 12:58 AM — Jul 5 12:58 AM, Dover, Weather by CustomWeather, © 2015

Note: Actual official high and low records may vary slightly from our data, if they occured in-between our weather recording intervals... More about our weather records

Advertising

Dover weather history for previous 24 hours

 ConditionsComfort  
Time TempWeatherWind HumidityBarometerVisibility
12:58 AM
Sun, Jul 5
69 °FPassing clouds.No wind80%30.03 "Hg10 mi
11:58 PM
Sat, Jul 4
71 °FOvercast.5 mph74%30.02 "Hg10 mi
10:58 PM69 °FPassing clouds.6 mph80%29.99 "Hg10 mi
9:58 PM72 °FOvercast.7 mph78%29.99 "Hg10 mi
8:58 PM72 °FOvercast.10 mph83%29.97 "Hg10 mi
7:58 PM73 °FBroken clouds.7 mph84%29.95 "Hg10 mi
6:58 PM74 °FOvercast.7 mph83%29.94 "Hg10 mi
5:58 PM77 °FPartly sunny.9 mph76%29.91 "Hg10 mi
4:58 PM76 °FOvercast.5 mph74%29.92 "Hg10 mi
3:58 PM78 °FOvercast.3 mph69%29.91 "Hg10 mi
2:58 PM77 °FOvercast.3 mph69%29.91 "Hg10 mi
1:58 PM76 °FPartly sunny.1 mph72%29.92 "Hg10 mi
12:58 PM76 °FOvercast.3 mph69%29.91 "Hg10 mi
11:58 AM77 °FPartly sunny.12 mph67%29.91 "Hg10 mi
10:58 AM77 °FPartly sunny.7 mph67%29.91 "Hg10 mi
9:58 AM77 °FPassing clouds.8 mph74%29.89 "Hg10 mi
8:58 AM75 °FSunny.10 mph81%29.89 "Hg10 mi
7:58 AM75 °FSunny.9 mph81%29.88 "Hg10 mi
6:58 AM72 °FPassing clouds.9 mph85%29.87 "Hg10 mi
5:58 AM72 °FPassing clouds.9 mph86%29.88 "Hg10 mi
4:58 AM72 °FPassing clouds.9 mph83%29.88 "Hg10 mi
3:58 AM72 °FPassing clouds.9 mph96%29.90 "Hg10 mi
2:58 AM72 °FPassing clouds.10 mph100%29.90 "Hg10 mi
Weather by CustomWeather, © 2015

See weather overviewHow to use our weather pages